Hoquiam, WA
on Friday, December 28, 2012

Friday
Previous Day Next Day
Daily Summary
 ActualAverageRecord
Temperature
Mean Temperature °F 41°F  
Max Temperature 44°F 46°F 55°F (1980)
Min Temperature 41°F 37°F 18°F (1968)
Degree Days
Heating Degree Days 22 24  
Month to date heating degree days 659  
Cooling Degree Days 0 0  
Month to date cooling degree days 0  
Year to date cooling degree days 23  
Moisture
Dew Point 41°F   
Average Humidity 95    
Maximum Humidity 100    
Minimum Humidity 89    
Precipitation
Precipitation 0.24 in 0.32 in 1.44 in (1997)
Month to date precipitation 9.02  
Year to date precipitation 66.61  
Wind
Wind Speed 8 mph   
Max Wind Speed 9 mph   
Max Gust Speed mph   
Visibility 8 miles   
Events Rain   

Key: T is trace of precipitation, MM is missing value
Source: NWS Daily Summary
Time(PST)TemperatureDew PointHumidity Pressure Visibility Wind DirectionWind SpeedGust SpeedPrecipitationEvents Conditions
12:53 AM 42.1°F 39.9°F 92% 30.13 in 10.0 miles NE 9.2 mph - 0.01 in Rain Light Rain
1:53 AM 42.1°F 39.9°F 92% 30.13 in 9.0 miles ENE 8.1 mph - 0.02 in Rain Light Rain
2:53 AM 41.0°F 39.2°F 93% 30.12 in 10.0 miles ENE 8.1 mph - N/A   Overcast
3:53 AM 41.0°F 39.9°F 96% 30.12 in 5.0 miles ENE 9.2 mph - 0.02 in Rain Light Rain
4:53 AM 41.0°F 39.9°F 96% 30.10 in 9.0 miles NE 9.2 mph - 0.02 in Rain Light Rain
5:53 AM 42.1°F 39.9°F 92% 30.10 in 10.0 miles NE 9.2 mph - 0.01 in Rain Light Rain
6:53 AM 42.1°F 39.9°F 92% 30.10 in 8.0 miles NE 9.2 mph - 0.01 in Rain Light Rain
7:50 AM 41.0°F 39.2°F 93% 30.09 in 10.0 miles NE 8.1 mph - 0.02 in Rain Light Rain
7:53 AM 41.0°F 39.9°F 96% 30.10 in 10.0 miles NE 8.1 mph - 0.02 in Rain Light Rain
8:53 AM 41.0°F 39.9°F 96% 30.11 in 8.0 miles ENE 6.9 mph - 0.01 in Rain Light Rain
9:53 AM 42.1°F 39.9°F 92% 30.12 in 9.0 miles NE 8.1 mph - 0.01 in   Overcast
10:53 AM 42.1°F 39.9°F 92% 30.12 in 10.0 miles ENE 6.9 mph - 0.00 in   Overcast
11:53 AM 43.0°F 41.0°F 93% 30.12 in 9.0 miles ENE 8.1 mph - 0.00 in Rain Light Rain
12:00 PM 42.8°F 41.0°F 93% 30.10 in 9.0 miles ENE 8.1 mph - 0.01 in Rain Light Rain
12:11 PM 42.8°F 41.0°F 93% 30.10 in 8.0 miles ENE 8.1 mph - 0.01 in Rain Light Rain
12:53 PM 44.1°F 41.0°F 89% 30.11 in 7.0 miles ENE 8.1 mph - 0.01 in Rain Light Rain
1:53 PM 44.1°F 42.1°F 93% 30.10 in 8.0 miles ENE 6.9 mph - 0.01 in Rain Light Rain
2:53 PM 44.1°F 42.1°F 93% 30.11 in 10.0 miles ENE 6.9 mph - 0.00 in   Overcast
3:14 PM 44.6°F 42.8°F 93% 30.10 in 10.0 miles ENE 5.8 mph - N/A   Overcast
3:53 PM 44.1°F 42.1°F 93% 30.11 in 8.0 miles ENE 5.8 mph - 0.01 in Rain Light Rain
4:42 PM 44.6°F 42.8°F 93% 30.10 in 8.0 miles NE 5.8 mph - 0.01 in Rain Light Rain
4:53 PM 44.6°F 42.8°F 93% 30.10 in 8.0 miles ENE 5.8 mph - N/A Rain Light Rain
5:13 PM 42.8°F 42.8°F 100% 30.11 in 7.0 miles ENE 5.8 mph - 0.01 in Rain Light Rain
5:53 PM 43.0°F 42.1°F 97% 30.12 in 9.0 miles ENE 4.6 mph - 0.03 in Rain Light Rain
6:09 PM 42.8°F 42.8°F 100% 30.11 in 8.0 miles ENE 5.8 mph - 0.00 in Rain Light Rain
6:38 PM 42.8°F 42.8°F 100% 30.11 in 8.0 miles ENE 5.8 mph - 0.01 in Rain Light Rain
6:51 PM 42.8°F 42.8°F 100% 30.11 in 8.0 miles ENE 4.6 mph - 0.01 in Rain Light Rain
6:53 PM 43.0°F 42.1°F 97% 30.12 in 8.0 miles ENE 4.6 mph - 0.02 in Rain Light Rain
7:53 PM 43.0°F 42.1°F 97% 30.13 in 7.0 miles ENE 6.9 mph - 0.01 in Rain Light Rain
8:53 PM 43.0°F 41.0°F 93% 30.13 in 8.0 miles ENE 5.8 mph - 0.01 in   Overcast
9:53 PM 42.1°F 41.0°F 96% 30.14 in 7.0 miles ENE 5.8 mph - 0.01 in   Overcast
10:53 PM 42.1°F 41.0°F 96% 30.15 in 9.0 miles ENE 6.9 mph - N/A   Overcast
11:53 PM 42.1°F 41.0°F 96% 30.16 in 9.0 miles NE 5.8 mph - 0.00 in   Overcast
Moon Phase
Dec. 28 Jan. 04 Jan. 11 Jan. 18 Jan. 26
Sunrise:08:01 AM (PST) Moon Rise:05:20 PM (PST)12/28
Sunset:04:34 PM (PST) Moon Set:07:55 AM (PST)12/28

Copyright © 2014 The Weather Underground, Inc.